Regional Weather Roundup
Issued by NWS Albany, NY

Home | Current Version | Previous Version | Text Only | Print | Product List | Glossary On
Versions: 1 2 3 4 5 6 7 8 9 10 11 12 13 14 15 16 17 18 19 20 21 22 23 24 25 26 27 28 29 30 31 32 33 34 35 36 37 38 39 40 41 42 43 44 45 46 47 48 49 50
000
ASUS41 KALY 190010
RWRALY

NEW YORK STATE HOURLY WEATHER ROUNDUP
NATIONAL WEATHER SERVICE ALBANY NY
800 PM EDT THU APR 18 2019

NOTE: "FAIR" INDICATES FEW OR NO CLOUDS BELOW 12,000 FEET WITH NO
SIGNIFICANT WEATHER AND/OR NO OBSTRUCTIONS TO VISIBILITY.

NYZ032-033-038>043-046>054-057>066-NYZ062>081-082-084-190100-
EAST


CITY           SKY/WX    TMP DP  RH WIND       PRES   REMARKS
ALBANY         CLOUDY    54  47  77 S9        29.85F
GLENS FALLS    CLOUDY    52  46  80 S6        29.83F
POUGHKEEPSIE   CLOUDY    56  51  84 CALM      29.88F
NEWBURGH       CLOUDY    55  54  94 E6        29.89F
MONTGOMERY     CLOUDY    51  49  92 N6        29.87F
WHITE PLAINS   FAIR      56  52  86 SE12G18   29.88F
ISLIP          MOCLDY    56  48  74 S13       29.93R
NEW YORK CITY  MOCLDY    57  49  74 S9        29.87F
CENTRAL PARK   FAIR      59  50  72 VRB3      29.89F
$$

NYZ005>009-017-018-044>046-055-056-190100-
CENTRAL


CITY           SKY/WX    TMP DP  RH WIND       PRES   REMARKS
FULTON         CLOUDY    65  49  56 VRB5      29.67F
SYRACUSE       LGT RAIN  62  53  72 E6        29.70R
ROME           CLOUDY    59  48  67 SE9       29.76R
ELMIRA         FAIR      64  49  57 S5        29.73F
BINGHAMTON     FAIR      58  50  75 S9        29.77S
MONTICELLO     LGT RAIN  48  47  96 E8        29.88F VSB 1/4
$$

NYZ026>034-041>043-087-190100-
NORTH


CITY           SKY/WX    TMP DP  RH WIND       PRES   REMARKS
WATERTOWN      MOCLDY    65  50  58 S12G25    29.61S
FORT DRUM      NOT AVBL
OGDENSBURG     FAIR      63  50  63 S13G29    29.57S
MASSENA        FAIR      65  48  54 S14G25    29.60S
SARANAC LAKE   CLOUDY    56  45  66 SW20G26   29.69S
PLATTSBURGH    MOCLDY    50  43  77 S13       29.72F
$$

NYZ001>004-010>016-019>021-085-190100-
WEST


CITY           SKY/WX    TMP DP  RH WIND       PRES   REMARKS
NIAGARA FALLS  FAIR      66  50  56 SW12      29.56F
BUFFALO        MOCLDY    63  49  60 SW8       29.59F
DUNKIRK        FAIR      74  50  42 S8        29.59S
JAMESTOWN      MOCLDY    70  49  47 S9        29.66F
WELLSVILLE     FAIR      65  49  56 S9G22     29.72S
ROCHESTER      MOCLDY    69  50  50 S13       29.60F
PENN YAN       FAIR      64  49  57 S9        29.69F
$$

             KEY
       WCI = WIND CHILL INDEX
       VSB = VISIBILITY
       HX  = HEAT INDEX
$$




USA.gov is the U.S. government's official web portal to all federal, state and local government web resources and services.